Location: La Pernelle
(49.6188°N, 1.2999°W)
Time: 17:38:21
(UTC+00:00)

SL-16 R/B - Pass Details

Date: 26 October 2021
Orbit: 842 x 846 km, 71.0° (Epoch: 28 November)

Event Time Altitude Azimuth Distance (km) Brightness Sun altitude
Rises 19:07:25 0° 234° (SW) 3,394 6.1 -22.3°
Reaches altitude 10° 19:10:02 10° 243° (WSW) 2,463 5.4 -22.7°
Maximum altitude 19:15:16 38° 310° (NW) 1,282 3.5 -23.6°
Drops below altitude 10° 19:20:33 10° 18° (NNE) 2,478 4.5 -24.4°
Enters shadow 19:21:51 - 23° (NNE) 2,935 4.9 -24.6°
